UAL1765 MMUN-KLAX

Flight info

Callsign UAL1765
Flight time 6h 15m
Altitude 38000
Route UDGUV2A UDGUV DCT MID UJ26 PERGO UT37 NOTEN/N0479F400 UT37 SESNO DCT MTY UT11 PPE J93 ASUTA DCT AMMOR OLAAA2
Aircraft B772/H-SDE2E3FGHIJ5LORVWXY/LB1D1

Departure

Time 2026-04-24 12:39
Airport Cancún International Airport (MMUN)

Arrival

Time 2026-04-24 18:54
Airport Los Angeles International Airport (KLAX)
Time Latitude Longitude Altitude Speed Heading
2026-04-24 12:06 21.03649 -86.87076 32 ft 0 kts 33°
2026-04-24 12:29 21.03642 -86.87081 31 ft 4 kts 33°
2026-04-24 12:29 21.03619 -86.87097 30 ft 4 kts 33°
2026-04-24 12:29 21.03601 -86.87110 30 ft 4 kts 26°
2026-04-24 12:30 21.03583 -86.87116 32 ft 4 kts 341°
2026-04-24 12:30 21.03568 -86.87104 28 ft 3 kts 304°
2026-04-24 12:30 21.03552 -86.87081 30 ft 4 kts 307°
2026-04-24 12:30 21.03543 -86.87069 28 ft 0 kts 304°
2026-04-24 12:32 21.03551 -86.87092 29 ft 9 kts 277°
2026-04-24 12:32 21.03518 -86.87149 32 ft 9 kts 253°
2026-04-24 12:33 21.03548 -86.87205 32 ft 10 kts 316°
2026-04-24 12:33 21.03613 -86.87296 33 ft 17 kts 297°
2026-04-24 12:33 21.03669 -86.87409 33 ft 17 kts 302°
2026-04-24 12:33 21.03735 -86.87516 33 ft 17 kts 306°
2026-04-24 12:34 21.03789 -86.87596 33 ft 17 kts 305°
2026-04-24 12:34 21.03852 -86.87705 33 ft 17 kts 301°
2026-04-24 12:34 21.03914 -86.87814 33 ft 17 kts 301°
2026-04-24 12:34 21.03994 -86.87909 33 ft 17 kts 310°
2026-04-24 12:35 21.04059 -86.88016 33 ft 17 kts 301°
2026-04-24 12:35 21.04122 -86.88125 33 ft 17 kts 302°
2026-04-24 12:35 21.04189 -86.88231 33 ft 17 kts 305°
2026-04-24 12:35 21.04257 -86.88335 33 ft 17 kts 305°
2026-04-24 12:36 21.04325 -86.88442 33 ft 17 kts 303°
2026-04-24 12:36 21.04391 -86.88549 33 ft 17 kts 303°
2026-04-24 12:36 21.04457 -86.88655 33 ft 17 kts 303°
2026-04-24 12:36 21.04528 -86.88769 33 ft 23 kts 303°
2026-04-24 12:37 21.04572 -86.88840 33 ft 9 kts 303°
2026-04-24 12:37 21.04607 -86.88897 33 ft 9 kts 303°
2026-04-24 12:37 21.04652 -86.88980 33 ft 13 kts 295°
2026-04-24 12:37 21.04616 -86.89054 32 ft 6 kts 203°
2026-04-24 12:38 21.04553 -86.89069 31 ft 15 kts 180°
2026-04-24 12:38 21.04472 -86.89004 32 ft 18 kts 120°
2026-04-24 12:38 21.04353 -86.88791 33 ft 63 kts 123°
2026-04-24 12:39 21.02333 -86.85765 1565 ft 216 kts 136°
2026-04-24 12:39 21.01039 -86.84901 2184 ft 227 kts 161°
2026-04-24 12:39 20.99451 -86.84803 2851 ft 237 kts 196°
2026-04-24 12:40 20.97976 -86.85639 3469 ft 246 kts 212°
2026-04-24 12:40 20.96531 -86.86654 4251 ft 250 kts 213°
2026-04-24 12:40 20.95052 -86.87708 4916 ft 261 kts 218°
2026-04-24 12:40 20.93868 -86.89210 5554 ft 269 kts 244°
2026-04-24 12:41 20.93279 -86.91103 6387 ft 272 kts 260°
2026-04-24 12:41 20.92990 -86.93122 7168 ft 276 kts 263°
2026-04-24 12:41 20.92735 -86.95166 8027 ft 278 kts 263°
2026-04-24 12:41 20.92463 -86.97226 8873 ft 281 kts 263°
2026-04-24 12:42 20.92175 -86.99309 9721 ft 285 kts 264°
2026-04-24 12:42 20.91878 -87.01423 10438 ft 293 kts 264°
2026-04-24 12:42 20.91560 -87.03665 10730 ft 315 kts 263°
2026-04-24 12:42 20.91221 -87.06019 11349 ft 325 kts 264°
2026-04-24 12:43 20.90873 -87.08427 12135 ft 329 kts 264°
2026-04-24 12:43 20.90521 -87.10851 13020 ft 331 kts 264°
2026-04-24 12:43 20.90166 -87.13287 13892 ft 333 kts 264°
2026-04-24 12:43 20.89808 -87.15750 14637 ft 337 kts 264°
2026-04-24 12:44 20.89446 -87.18240 15361 ft 341 kts 264°
2026-04-24 12:44 20.89080 -87.20757 15906 ft 345 kts 264°
2026-04-24 12:44 20.88709 -87.23303 15997 ft 349 kts 264°
2026-04-24 12:44 20.88335 -87.25864 16004 ft 348 kts 264°
2026-04-24 12:45 20.87962 -87.28416 16003 ft 347 kts 264°
2026-04-24 12:45 20.87589 -87.30965 15999 ft 346 kts 264°
2026-04-24 12:45 20.87217 -87.33508 15999 ft 346 kts 264°
2026-04-24 12:45 20.86844 -87.36053 16000 ft 346 kts 264°
2026-04-24 12:46 20.86470 -87.38600 16000 ft 347 kts 264°
2026-04-24 12:46 20.86096 -87.41143 15999 ft 347 kts 264°
2026-04-24 12:46 20.85720 -87.43697 15999 ft 347 kts 264°
2026-04-24 12:46 20.85345 -87.46245 15999 ft 347 kts 264°
2026-04-24 12:47 20.84969 -87.48795 15997 ft 348 kts 264°
2026-04-24 12:47 20.84592 -87.51348 15997 ft 348 kts 264°
2026-04-24 12:47 20.84214 -87.53900 16002 ft 348 kts 264°
2026-04-24 12:47 20.83835 -87.56463 16114 ft 351 kts 264°
2026-04-24 12:48 20.83452 -87.59048 16877 ft 353 kts 264°
2026-04-24 12:48 20.83065 -87.61647 17685 ft 355 kts 264°
2026-04-24 12:48 20.82676 -87.64263 18408 ft 358 kts 264°
2026-04-24 12:48 20.82283 -87.66902 19024 ft 362 kts 264°
2026-04-24 12:49 20.81886 -87.69566 19629 ft 365 kts 264°
2026-04-24 12:49 20.81485 -87.72253 19942 ft 368 kts 264°
2026-04-24 12:49 20.81079 -87.74971 19929 ft 370 kts 264°
2026-04-24 12:49 20.80706 -87.77683 19935 ft 367 kts 269°
2026-04-24 12:50 20.80738 -87.80432 20019 ft 378 kts 277°
2026-04-24 12:50 20.80965 -87.83289 20129 ft 394 kts 278°
2026-04-24 12:50 20.81237 -87.86257 20322 ft 407 kts 278°
2026-04-24 12:50 20.81514 -87.89299 20670 ft 414 kts 278°
2026-04-24 12:51 20.81779 -87.92386 21104 ft 419 kts 278°
2026-04-24 12:51 20.82031 -87.95492 21618 ft 421 kts 278°
2026-04-24 12:51 20.82273 -87.98609 22123 ft 423 kts 278°
2026-04-24 12:51 20.82511 -88.01760 22611 ft 426 kts 278°
2026-04-24 12:52 20.82746 -88.04929 23043 ft 429 kts 278°
2026-04-24 12:52 20.82980 -88.08124 23463 ft 433 kts 278°
2026-04-24 12:52 20.83216 -88.11342 23839 ft 436 kts 278°
2026-04-24 12:52 20.83451 -88.14575 24240 ft 437 kts 278°
2026-04-24 12:53 20.83684 -88.17781 24633 ft 439 kts 278°
2026-04-24 12:53 20.83923 -88.21085 25023 ft 441 kts 278°
2026-04-24 12:53 20.84158 -88.24320 25399 ft 444 kts 278°
2026-04-24 12:53 20.84396 -88.27617 25776 ft 446 kts 278°
2026-04-24 12:54 20.84635 -88.30934 26152 ft 448 kts 278°
2026-04-24 12:54 20.84875 -88.34266 26540 ft 451 kts 278°
2026-04-24 12:54 20.85115 -88.37611 26906 ft 453 kts 278°
2026-04-24 12:54 20.85356 -88.40975 27275 ft 455 kts 278°
2026-04-24 12:55 20.85597 -88.44357 27632 ft 457 kts 278°
2026-04-24 12:55 20.85839 -88.47756 27987 ft 460 kts 278°
2026-04-24 12:55 20.86081 -88.51171 28332 ft 462 kts 278°
2026-04-24 12:55 20.86324 -88.54603 28673 ft 464 kts 278°
2026-04-24 12:56 20.86567 -88.58045 28990 ft 466 kts 278°
2026-04-24 12:56 20.86811 -88.61512 29288 ft 468 kts 278°
2026-04-24 12:56 20.87055 -88.64996 29569 ft 471 kts 278°
2026-04-24 12:56 20.87299 -88.68493 29820 ft 473 kts 278°
2026-04-24 12:57 20.87545 -88.72010 30055 ft 475 kts 278°
2026-04-24 12:57 20.87789 -88.75536 30326 ft 475 kts 278°
2026-04-24 12:57 20.88031 -88.79048 30691 ft 473 kts 278°
2026-04-24 12:57 20.88271 -88.82543 31116 ft 469 kts 278°
2026-04-24 12:58 20.88509 -88.86009 31537 ft 467 kts 279°
2026-04-24 12:58 20.88745 -88.89463 31935 ft 464 kts 279°
2026-04-24 12:58 20.88980 -88.92896 32314 ft 463 kts 279°
2026-04-24 12:58 20.89215 -88.96328 32697 ft 461 kts 279°
2026-04-24 12:59 20.89448 -88.99739 33082 ft 459 kts 279°
2026-04-24 12:59 20.89678 -89.03130 33495 ft 457 kts 279°
2026-04-24 12:59 20.89907 -89.06518 33891 ft 455 kts 279°
2026-04-24 12:59 20.90134 -89.09884 34228 ft 453 kts 279°
2026-04-24 13:00 20.90360 -89.13234 34540 ft 452 kts 279°
2026-04-24 13:00 20.90585 -89.16586 34857 ft 451 kts 279°
2026-04-24 13:00 20.90809 -89.19925 35185 ft 449 kts 279°
2026-04-24 13:00 20.90956 -89.22127 35373 ft 449 kts 279°
2026-04-24 13:01 20.91177 -89.25454 35676 ft 448 kts 279°
2026-04-24 13:01 20.91398 -89.28768 35967 ft 447 kts 279°
2026-04-24 13:01 20.91616 -89.32074 36267 ft 445 kts 279°
2026-04-24 13:01 20.91834 -89.35375 36576 ft 444 kts 279°
2026-04-24 13:02 20.92123 -89.39772 36953 ft 442 kts 279°
2026-04-24 13:02 20.92266 -89.41941 37137 ft 442 kts 279°
2026-04-24 13:02 20.92480 -89.45216 37418 ft 440 kts 279°
2026-04-24 13:02 20.92693 -89.48475 37710 ft 439 kts 279°
2026-04-24 13:03 20.92906 -89.51732 37826 ft 441 kts 279°
2026-04-24 13:03 20.93711 -89.58176 37912 ft 431 kts 295°
2026-04-24 13:03 20.95104 -89.60979 37917 ft 425 kts 308°
2026-04-24 13:04 20.97081 -89.63302 37915 ft 423 kts 319°
2026-04-24 13:04 21.01902 -89.66877 37902 ft 424 kts 334°
2026-04-24 13:04 21.04751 -89.67742 37922 ft 428 kts 347°
2026-04-24 13:05 21.07711 -89.68193 37900 ft 430 kts 348°
2026-04-24 13:05 21.13640 -89.69048 37905 ft 430 kts 347°
2026-04-24 13:06 21.19542 -89.70045 37913 ft 430 kts 346°
2026-04-24 13:06 21.25061 -89.72063 37910 ft 418 kts 324°
2026-04-24 13:07 21.29318 -89.76285 37901 ft 420 kts 308°
2026-04-24 13:07 21.31991 -89.81876 37898 ft 424 kts 297°
2026-04-24 13:08 21.34385 -89.87671 37901 ft 426 kts 297°
2026-04-24 13:08 21.36822 -89.93482 37898 ft 428 kts 297°
2026-04-24 13:09 21.40548 -90.02209 37897 ft 429 kts 297°
2026-04-24 13:09 21.43042 -90.08027 37896 ft 429 kts 297°
2026-04-24 13:10 21.45531 -90.13839 37896 ft 428 kts 297°
2026-04-24 13:10 21.48015 -90.19650 37893 ft 427 kts 297°
2026-04-24 13:11 21.50489 -90.25444 37890 ft 427 kts 297°
2026-04-24 13:11 21.52958 -90.31233 37890 ft 426 kts 297°
2026-04-24 13:12 21.55419 -90.37011 37892 ft 425 kts 297°
2026-04-24 13:12 21.57880 -90.42792 37888 ft 425 kts 297°
2026-04-24 13:13 21.60335 -90.48569 37885 ft 425 kts 297°
2026-04-24 13:13 21.62786 -90.54343 37886 ft 425 kts 297°
2026-04-24 13:14 21.65238 -90.60125 37887 ft 425 kts 297°
2026-04-24 13:14 21.67691 -90.65917 37884 ft 425 kts 297°
2026-04-24 13:15 21.70140 -90.71706 37881 ft 426 kts 297°
2026-04-24 13:15 21.72591 -90.77507 37882 ft 426 kts 297°
2026-04-24 13:16 21.75024 -90.83272 37883 ft 426 kts 297°
2026-04-24 13:16 21.77490 -90.89122 37879 ft 427 kts 297°
2026-04-24 13:17 21.79918 -90.94905 37879 ft 427 kts 297°
2026-04-24 13:17 21.82359 -91.00731 37874 ft 427 kts 297°
2026-04-24 13:18 21.84798 -91.06559 37876 ft 427 kts 297°
2026-04-24 13:18 21.87237 -91.12394 37875 ft 427 kts 297°
2026-04-24 13:19 21.89674 -91.18230 37876 ft 427 kts 297°
2026-04-24 13:19 21.92111 -91.24072 37876 ft 427 kts 296°
2026-04-24 13:20 21.94543 -91.29912 37878 ft 427 kts 296°
2026-04-24 13:20 21.96974 -91.35754 37878 ft 428 kts 296°
2026-04-24 13:21 21.99405 -91.41604 37876 ft 427 kts 296°
2026-04-24 13:21 22.01833 -91.47449 37876 ft 427 kts 296°
2026-04-24 13:22 22.04262 -91.53302 37878 ft 428 kts 296°
2026-04-24 13:22 22.06686 -91.59150 37874 ft 428 kts 296°
2026-04-24 13:23 22.09111 -91.65009 37874 ft 428 kts 296°
2026-04-24 13:23 22.11532 -91.70866 37877 ft 428 kts 296°
2026-04-24 13:24 22.13952 -91.76727 37873 ft 428 kts 296°
2026-04-24 13:24 22.16370 -91.82591 37871 ft 428 kts 296°
2026-04-24 13:25 22.18785 -91.88455 37869 ft 428 kts 296°
2026-04-24 13:25 22.21200 -91.94327 37871 ft 428 kts 296°
2026-04-24 13:26 22.23613 -92.00199 37872 ft 428 kts 296°
2026-04-24 13:26 22.26025 -92.06077 37872 ft 428 kts 296°
2026-04-24 13:27 22.28435 -92.11957 37870 ft 428 kts 296°
2026-04-24 13:27 22.30844 -92.17842 37870 ft 428 kts 296°
2026-04-24 13:28 22.33249 -92.23724 37869 ft 428 kts 296°
2026-04-24 13:28 22.35653 -92.29612 37866 ft 428 kts 296°
2026-04-24 13:29 22.38055 -92.35502 37868 ft 428 kts 296°
2026-04-24 13:29 22.40452 -92.41389 37865 ft 428 kts 296°
2026-04-24 13:30 22.42847 -92.47275 37865 ft 428 kts 296°
2026-04-24 13:30 22.45243 -92.53169 37864 ft 428 kts 296°
2026-04-24 13:31 22.47639 -92.59065 37863 ft 428 kts 295°
2026-04-24 13:31 22.50032 -92.64959 37865 ft 428 kts 295°
2026-04-24 13:32 22.52422 -92.70857 37861 ft 428 kts 295°
2026-04-24 13:32 22.54808 -92.76751 37862 ft 428 kts 295°
2026-04-24 13:33 22.57193 -92.82652 37862 ft 428 kts 295°
2026-04-24 13:33 22.59562 -92.88519 37866 ft 428 kts 295°
2026-04-24 13:34 22.61958 -92.94460 37863 ft 428 kts 295°
2026-04-24 13:34 22.64321 -93.00328 37862 ft 428 kts 295°
2026-04-24 13:35 22.66713 -93.06275 37861 ft 428 kts 295°
2026-04-24 13:35 22.69070 -93.12143 37860 ft 428 kts 295°
2026-04-24 13:36 22.71442 -93.18055 37863 ft 428 kts 295°
2026-04-24 13:36 22.73812 -93.23968 37862 ft 428 kts 295°
2026-04-24 13:37 22.76179 -93.29884 37862 ft 428 kts 295°
2026-04-24 13:37 22.78547 -93.35807 37863 ft 428 kts 295°
2026-04-24 13:38 22.80909 -93.41725 37861 ft 428 kts 295°
2026-04-24 13:38 22.83273 -93.47653 37857 ft 428 kts 295°
2026-04-24 13:39 22.85633 -93.53580 37859 ft 428 kts 295°
2026-04-24 13:39 22.87990 -93.59508 37860 ft 428 kts 295°
2026-04-24 13:40 22.90344 -93.65436 37861 ft 428 kts 294°
2026-04-24 13:40 22.92699 -93.71374 37861 ft 428 kts 294°
2026-04-24 13:41 22.95051 -93.77311 37857 ft 428 kts 294°
2026-04-24 13:41 22.97404 -93.83258 37857 ft 428 kts 294°
2026-04-24 13:42 22.99750 -93.89196 37860 ft 429 kts 294°
2026-04-24 13:42 23.02097 -93.95144 37860 ft 429 kts 294°
2026-04-24 13:43 23.04441 -94.01092 37858 ft 429 kts 294°
2026-04-24 13:43 23.06786 -94.07049 37855 ft 429 kts 294°
2026-04-24 13:44 23.09127 -94.13004 37856 ft 429 kts 294°
2026-04-24 13:44 23.11071 -94.17957 37858 ft 429 kts 294°
2026-04-24 13:45 23.13789 -94.24889 37860 ft 429 kts 294°
2026-04-24 13:45 23.16126 -94.30857 37861 ft 429 kts 294°
2026-04-24 13:46 23.18083 -94.35863 37855 ft 429 kts 294°
2026-04-24 13:46 23.20416 -94.41835 37856 ft 429 kts 294°
2026-04-24 13:47 23.22747 -94.47814 37859 ft 430 kts 294°
2026-04-24 13:47 23.25077 -94.53794 37857 ft 430 kts 294°
2026-04-24 13:48 23.27404 -94.59775 37857 ft 430 kts 294°
2026-04-24 13:48 23.29732 -94.65765 37861 ft 430 kts 294°
2026-04-24 13:49 23.32056 -94.71752 37854 ft 430 kts 294°
2026-04-24 13:49 23.34378 -94.77742 37857 ft 430 kts 294°
2026-04-24 13:50 23.36697 -94.83734 37855 ft 430 kts 294°
2026-04-24 13:50 23.39013 -94.89727 37856 ft 429 kts 294°
2026-04-24 13:51 23.41326 -94.95720 37853 ft 429 kts 294°
2026-04-24 13:51 23.43638 -95.01719 37856 ft 429 kts 294°
2026-04-24 13:52 23.45946 -95.07713 37855 ft 429 kts 294°
2026-04-24 13:52 23.48253 -95.13713 37854 ft 429 kts 293°
2026-04-24 13:53 23.50557 -95.19716 37859 ft 429 kts 293°
2026-04-24 13:53 23.52842 -95.25676 37854 ft 429 kts 293°
2026-04-24 13:54 23.55141 -95.31682 37856 ft 429 kts 293°
2026-04-24 13:54 23.57438 -95.37688 37856 ft 429 kts 293°
2026-04-24 13:55 23.59744 -95.43729 37858 ft 429 kts 293°
2026-04-24 13:55 23.62035 -95.49735 37854 ft 429 kts 293°
2026-04-24 13:56 23.64320 -95.55737 37855 ft 429 kts 293°
2026-04-24 13:56 23.66591 -95.61707 37857 ft 428 kts 293°
2026-04-24 13:57 23.68871 -95.67709 37854 ft 428 kts 293°
2026-04-24 13:57 23.71148 -95.73712 37855 ft 428 kts 293°
2026-04-24 13:58 23.73422 -95.79716 37854 ft 428 kts 293°
2026-04-24 13:58 23.75695 -95.85723 37856 ft 428 kts 293°
2026-04-24 13:59 23.77962 -95.91727 37850 ft 428 kts 292°
2026-04-24 13:59 23.80228 -95.97734 37850 ft 428 kts 292°
2026-04-24 14:00 23.82493 -96.03747 37851 ft 428 kts 292°
2026-04-24 14:00 23.84755 -96.09759 37851 ft 428 kts 292°
2026-04-24 14:01 23.87015 -96.15776 37848 ft 428 kts 292°
2026-04-24 14:01 23.89272 -96.21793 37847 ft 428 kts 292°
2026-04-24 14:02 23.91528 -96.27814 37845 ft 428 kts 292°
2026-04-24 14:02 23.93779 -96.33832 37850 ft 428 kts 292°
2026-04-24 14:03 23.96028 -96.39853 37848 ft 427 kts 292°
2026-04-24 14:03 23.98273 -96.45873 37844 ft 428 kts 292°
2026-04-24 14:04 24.00515 -96.51891 37843 ft 427 kts 292°
2026-04-24 14:04 24.02754 -96.57913 37842 ft 427 kts 292°
2026-04-24 14:05 24.04979 -96.63899 37846 ft 427 kts 292°
2026-04-24 14:05 24.07227 -96.69963 37840 ft 427 kts 292°
2026-04-24 14:06 24.09443 -96.75951 37840 ft 427 kts 292°
2026-04-24 14:06 24.11671 -96.81980 37839 ft 427 kts 292°
2026-04-24 14:07 24.13895 -96.88008 37839 ft 427 kts 292°
2026-04-24 14:07 24.16117 -96.94039 37840 ft 427 kts 292°
2026-04-24 14:08 24.18333 -97.00064 37834 ft 427 kts 292°
2026-04-24 14:08 24.20549 -97.06094 37835 ft 426 kts 291°
2026-04-24 14:09 24.22760 -97.12121 37830 ft 426 kts 291°
2026-04-24 14:09 24.24967 -97.18144 37830 ft 426 kts 291°
2026-04-24 14:10 24.27172 -97.24171 37827 ft 426 kts 291°
2026-04-24 14:10 24.29371 -97.30193 37823 ft 425 kts 291°
2026-04-24 14:11 24.31567 -97.36213 37815 ft 425 kts 291°
2026-04-24 14:12 24.34857 -97.45247 37812 ft 425 kts 291°
2026-04-24 14:12 24.37046 -97.51270 37810 ft 425 kts 291°
2026-04-24 14:13 24.39234 -97.57297 37809 ft 425 kts 291°
2026-04-24 14:13 24.41416 -97.63321 37827 ft 425 kts 291°
2026-04-24 14:14 24.43598 -97.69350 37825 ft 425 kts 291°
2026-04-24 14:14 24.46865 -97.78396 37823 ft 425 kts 291°
2026-04-24 14:15 24.49040 -97.84431 37823 ft 425 kts 291°
2026-04-24 14:15 24.51210 -97.90460 37821 ft 425 kts 291°
2026-04-24 14:16 24.53380 -97.96495 37823 ft 425 kts 291°
2026-04-24 14:17 24.56630 -98.05552 37819 ft 425 kts 291°
2026-04-24 14:17 24.59871 -98.14606 37823 ft 425 kts 290°
2026-04-24 14:18 24.62028 -98.20642 37825 ft 425 kts 290°
2026-04-24 14:18 24.64186 -98.26689 37819 ft 425 kts 290°
2026-04-24 14:19 24.66338 -98.32730 37821 ft 424 kts 290°
2026-04-24 14:19 24.68486 -98.38767 37816 ft 424 kts 290°
2026-04-24 14:20 24.70635 -98.44813 37828 ft 424 kts 290°
2026-04-24 14:20 24.72777 -98.50854 37826 ft 424 kts 290°
2026-04-24 14:21 24.74905 -98.56862 37828 ft 424 kts 290°
2026-04-24 14:21 24.77043 -98.62906 37828 ft 424 kts 290°
2026-04-24 14:22 24.79193 -98.68993 37828 ft 424 kts 290°
2026-04-24 14:23 24.82395 -98.78075 37827 ft 424 kts 290°
2026-04-24 14:23 24.84514 -98.84099 37825 ft 424 kts 290°
2026-04-24 14:24 24.86644 -98.90162 37819 ft 425 kts 290°
2026-04-24 14:24 24.88770 -98.96224 37825 ft 424 kts 290°
2026-04-24 14:25 24.90550 -99.01304 37824 ft 424 kts 290°
2026-04-24 14:25 24.93279 -99.08235 37824 ft 426 kts 297°
2026-04-24 14:26 24.96533 -99.13714 37825 ft 429 kts 303°
2026-04-24 14:26 25.00491 -99.18669 37828 ft 432 kts 309°
2026-04-24 14:27 25.04651 -99.23521 37822 ft 432 kts 309°
2026-04-24 14:27 25.08743 -99.28317 37823 ft 432 kts 309°
2026-04-24 14:28 25.12841 -99.33164 37824 ft 432 kts 308°
2026-04-24 14:28 25.16929 -99.38022 37826 ft 432 kts 308°
2026-04-24 14:29 25.21013 -99.42883 37830 ft 432 kts 308°
2026-04-24 14:29 25.25100 -99.47753 37824 ft 432 kts 308°
2026-04-24 14:30 25.28522 -99.51833 37828 ft 432 kts 308°
2026-04-24 14:30 25.32605 -99.56706 37825 ft 432 kts 308°
2026-04-24 14:31 25.36686 -99.61582 37830 ft 432 kts 308°
2026-04-24 14:31 25.40761 -99.66456 37830 ft 432 kts 308°
2026-04-24 14:32 25.44806 -99.71299 37829 ft 431 kts 308°
2026-04-24 14:32 25.48874 -99.76176 37829 ft 431 kts 308°
2026-04-24 14:33 25.52939 -99.81053 37833 ft 431 kts 308°
2026-04-24 14:33 25.56999 -99.85930 37848 ft 431 kts 308°
2026-04-24 14:34 25.61060 -99.90814 37836 ft 431 kts 308°
2026-04-24 14:34 25.65118 -99.95699 37876 ft 431 kts 308°
2026-04-24 14:35 25.69176 -100.00591 37892 ft 430 kts 308°
2026-04-24 14:35 25.73229 -100.05480 37897 ft 430 kts 308°
2026-04-24 14:36 25.77058 -100.10536 37899 ft 426 kts 301°
2026-04-24 14:36 25.80131 -100.16120 37900 ft 423 kts 295°
2026-04-24 14:37 25.82896 -100.21883 37909 ft 423 kts 295°
2026-04-24 14:37 25.85665 -100.27649 37911 ft 424 kts 295°
2026-04-24 14:38 25.88449 -100.33421 37913 ft 424 kts 295°
2026-04-24 14:38 25.91238 -100.39199 37889 ft 424 kts 295°
2026-04-24 14:39 25.94026 -100.44981 37873 ft 424 kts 295°
2026-04-24 14:39 25.96802 -100.50747 37879 ft 423 kts 295°
2026-04-24 14:40 25.99580 -100.56524 37865 ft 424 kts 295°
2026-04-24 14:40 26.02337 -100.62260 37859 ft 424 kts 295°
2026-04-24 14:41 26.05122 -100.68042 37859 ft 424 kts 295°
2026-04-24 14:41 26.07899 -100.73816 37868 ft 423 kts 295°
2026-04-24 14:42 26.10674 -100.79594 37872 ft 423 kts 295°
2026-04-24 14:42 26.13440 -100.85361 37865 ft 422 kts 295°
2026-04-24 14:43 26.16196 -100.91133 37873 ft 422 kts 295°
2026-04-24 14:43 26.18940 -100.96895 37876 ft 421 kts 295°
2026-04-24 14:44 26.21686 -101.02670 37874 ft 422 kts 295°
2026-04-24 14:44 26.24430 -101.08443 37868 ft 422 kts 295°
2026-04-24 14:45 26.27176 -101.14225 37880 ft 422 kts 295°
2026-04-24 14:45 26.29916 -101.20001 37876 ft 422 kts 294°
2026-04-24 14:46 26.32661 -101.25798 37879 ft 422 kts 294°
2026-04-24 14:46 26.35405 -101.31599 37887 ft 423 kts 294°
2026-04-24 14:47 26.38154 -101.37417 37891 ft 424 kts 294°
2026-04-24 14:47 26.40898 -101.43235 37890 ft 424 kts 294°
2026-04-24 14:48 26.43638 -101.49058 37856 ft 423 kts 294°
2026-04-24 14:48 26.46383 -101.54885 37891 ft 424 kts 294°
2026-04-24 14:49 26.49123 -101.60717 37893 ft 423 kts 294°
2026-04-24 14:49 26.51848 -101.66525 37886 ft 422 kts 294°
2026-04-24 14:50 26.54567 -101.72330 37890 ft 422 kts 294°
2026-04-24 14:50 26.57281 -101.78132 37882 ft 421 kts 294°
2026-04-24 14:51 26.59985 -101.83919 37884 ft 421 kts 294°
2026-04-24 14:51 26.62693 -101.89721 37875 ft 420 kts 294°
2026-04-24 14:52 26.65383 -101.95502 37886 ft 419 kts 294°
2026-04-24 14:52 26.68061 -102.01278 37874 ft 419 kts 294°
2026-04-24 14:53 26.70722 -102.07030 37878 ft 420 kts 294°
2026-04-24 14:53 26.73409 -102.12844 37880 ft 421 kts 294°
2026-04-24 14:54 26.76102 -102.18681 37877 ft 422 kts 294°
2026-04-24 14:54 26.78789 -102.24512 37887 ft 422 kts 294°
2026-04-24 14:55 26.81042 -102.29407 37890 ft 422 kts 294°
2026-04-24 14:55 26.84168 -102.36205 37887 ft 423 kts 294°
2026-04-24 14:56 26.86869 -102.42089 37884 ft 422 kts 294°
2026-04-24 14:56 26.89530 -102.47893 37900 ft 421 kts 294°
2026-04-24 14:57 26.92207 -102.53738 37902 ft 421 kts 294°
2026-04-24 14:57 26.94876 -102.59578 37904 ft 421 kts 293°
2026-04-24 14:58 26.97541 -102.65415 37907 ft 421 kts 293°
2026-04-24 14:58 27.00206 -102.71261 37910 ft 421 kts 293°
2026-04-24 14:59 27.02867 -102.77103 37909 ft 420 kts 293°
2026-04-24 14:59 27.05518 -102.82935 37916 ft 419 kts 293°
2026-04-24 15:00 27.08165 -102.88767 37911 ft 420 kts 293°
2026-04-24 15:00 27.10798 -102.94575 37908 ft 420 kts 293°
2026-04-24 15:01 27.13460 -103.00454 37906 ft 420 kts 293°
2026-04-24 15:01 27.16090 -103.06271 37910 ft 421 kts 293°
2026-04-24 15:02 27.18737 -103.12133 37903 ft 421 kts 293°
2026-04-24 15:02 27.21376 -103.17986 37909 ft 420 kts 293°
2026-04-24 15:03 27.23569 -103.22858 37912 ft 420 kts 293°
2026-04-24 15:03 27.26654 -103.29718 37912 ft 420 kts 292°
2026-04-24 15:04 27.29283 -103.35574 37866 ft 419 kts 292°
2026-04-24 15:04 27.31892 -103.41392 37918 ft 417 kts 292°
2026-04-24 15:05 27.34486 -103.47186 37916 ft 417 kts 292°
2026-04-24 15:05 27.37094 -103.53016 37920 ft 417 kts 292°
2026-04-24 15:06 27.39696 -103.58846 37930 ft 417 kts 292°
2026-04-24 15:06 27.42302 -103.64692 37932 ft 418 kts 292°
2026-04-24 15:07 27.44901 -103.70530 37931 ft 417 kts 292°
2026-04-24 15:07 27.47498 -103.76368 37932 ft 417 kts 292°
2026-04-24 15:08 27.50092 -103.82211 37938 ft 416 kts 292°
2026-04-24 15:08 27.52671 -103.88025 37948 ft 415 kts 292°
2026-04-24 15:09 27.55241 -103.93832 37946 ft 413 kts 292°
2026-04-24 15:09 27.57803 -103.99630 37946 ft 413 kts 292°
2026-04-24 15:10 27.60340 -104.05375 37947 ft 411 kts 292°
2026-04-24 15:10 27.62898 -104.11178 37955 ft 411 kts 292°
2026-04-24 15:11 27.65421 -104.16909 37955 ft 410 kts 292°
2026-04-24 15:11 27.67953 -104.22671 37956 ft 410 kts 292°
2026-04-24 15:12 27.70484 -104.28435 37963 ft 410 kts 292°
2026-04-24 15:12 27.74347 -104.37049 37962 ft 411 kts 292°
2026-04-24 15:13 27.76966 -104.42788 37967 ft 411 kts 292°
2026-04-24 15:13 27.79578 -104.48535 37965 ft 411 kts 292°
2026-04-24 15:14 27.82183 -104.54288 37966 ft 411 kts 292°
2026-04-24 15:14 27.84779 -104.60034 37960 ft 411 kts 292°
2026-04-24 15:15 27.87376 -104.65790 37970 ft 411 kts 292°
2026-04-24 15:15 27.89967 -104.71539 37965 ft 411 kts 292°
2026-04-24 15:16 27.92559 -104.77300 37960 ft 411 kts 292°
2026-04-24 15:16 27.95132 -104.83027 37966 ft 411 kts 292°
2026-04-24 15:17 27.97717 -104.88788 37960 ft 411 kts 292°
2026-04-24 15:17 28.00299 -104.94562 37960 ft 411 kts 291°
2026-04-24 15:18 28.02855 -105.00348 37970 ft 410 kts 291°
2026-04-24 15:18 28.05397 -105.06123 37962 ft 410 kts 291°
2026-04-24 15:19 28.07935 -105.11891 37963 ft 409 kts 291°
2026-04-24 15:19 28.10470 -105.17657 37959 ft 409 kts 291°
2026-04-24 15:20 28.12573 -105.22450 37951 ft 408 kts 291°
2026-04-24 15:20 28.15097 -105.28202 37963 ft 407 kts 291°
2026-04-24 15:21 28.17635 -105.33999 37966 ft 414 kts 291°
2026-04-24 15:21 28.20205 -105.39882 37966 ft 419 kts 291°
2026-04-24 15:22 28.22805 -105.45835 37960 ft 422 kts 291°
2026-04-24 15:23 28.26718 -105.54806 37960 ft 423 kts 291°
2026-04-24 15:23 28.30578 -105.63669 37950 ft 412 kts 291°
2026-04-24 15:25 28.36879 -105.78206 37971 ft 411 kts 290°
2026-04-24 15:26 28.43188 -105.92812 38030 ft 413 kts 290°
2026-04-24 15:27 28.50755 -106.10393 38070 ft 413 kts 290°
2026-04-24 15:29 28.58296 -106.28000 38037 ft 412 kts 290°
2026-04-24 15:31 28.67027 -106.48470 38037 ft 409 kts 289°
2026-04-24 15:33 28.76906 -106.71778 38043 ft 409 kts 289°
2026-04-24 15:34 28.83132 -106.86357 38052 ft 410 kts 290°
2026-04-24 15:35 28.89379 -107.00922 38054 ft 410 kts 289°
2026-04-24 15:36 28.91883 -107.06781 38052 ft 411 kts 289°
2026-04-24 15:36 28.95631 -107.15569 38050 ft 410 kts 289°
2026-04-24 15:37 28.98121 -107.21416 38048 ft 410 kts 289°
2026-04-24 15:37 29.00610 -107.27270 38069 ft 410 kts 289°
2026-04-24 15:38 29.03107 -107.33138 38052 ft 410 kts 289°
2026-04-24 15:38 29.05598 -107.38998 38054 ft 411 kts 289°
2026-04-24 15:39 29.08089 -107.44871 38057 ft 410 kts 289°
2026-04-24 15:39 29.10576 -107.50743 38055 ft 410 kts 289°
2026-04-24 15:40 29.13054 -107.56603 38060 ft 410 kts 289°
2026-04-24 15:40 29.15526 -107.62476 38064 ft 409 kts 289°
2026-04-24 15:41 29.17984 -107.68345 38067 ft 409 kts 289°
2026-04-24 15:41 29.20443 -107.74228 38057 ft 409 kts 289°
2026-04-24 15:42 29.22900 -107.80111 38053 ft 409 kts 289°
2026-04-24 15:42 29.25349 -107.85985 38061 ft 409 kts 289°
2026-04-24 15:43 29.27800 -107.91873 38062 ft 409 kts 289°
2026-04-24 15:43 29.30245 -107.97752 38067 ft 409 kts 289°
2026-04-24 15:44 29.32687 -108.03635 38063 ft 409 kts 289°
2026-04-24 15:44 29.35115 -108.09493 38063 ft 410 kts 289°
2026-04-24 15:45 29.37570 -108.15426 38060 ft 410 kts 289°
2026-04-24 15:45 29.40012 -108.21337 38054 ft 410 kts 289°
2026-04-24 15:46 29.42454 -108.27256 38071 ft 410 kts 289°
2026-04-24 15:46 29.44875 -108.33133 38070 ft 410 kts 289°
2026-04-24 15:47 29.47308 -108.39050 38028 ft 409 kts 289°
2026-04-24 15:47 29.49733 -108.44954 38055 ft 409 kts 289°
2026-04-24 15:48 29.52157 -108.50868 38040 ft 410 kts 289°
2026-04-24 15:48 29.54580 -108.56765 38048 ft 408 kts 289°
2026-04-24 15:49 29.57002 -108.62658 38045 ft 408 kts 289°
2026-04-24 15:49 29.59420 -108.68559 38012 ft 408 kts 289°
2026-04-24 15:50 29.61833 -108.74458 37994 ft 407 kts 288°
2026-04-24 15:50 29.64240 -108.80352 38008 ft 408 kts 288°
2026-04-24 15:51 29.66649 -108.86263 37992 ft 409 kts 288°
2026-04-24 15:51 29.69054 -108.92160 37993 ft 407 kts 288°
2026-04-24 15:52 29.71458 -108.98079 37985 ft 408 kts 288°
2026-04-24 15:52 29.73855 -109.03987 37976 ft 408 kts 288°
2026-04-24 15:53 29.76256 -109.09908 37977 ft 408 kts 288°
2026-04-24 15:53 29.78651 -109.15830 37964 ft 408 kts 288°
2026-04-24 15:54 29.81047 -109.21766 37956 ft 409 kts 288°
2026-04-24 15:54 29.83442 -109.27700 37946 ft 409 kts 288°
2026-04-24 15:55 29.85833 -109.33639 37941 ft 409 kts 288°
2026-04-24 15:55 29.88215 -109.39564 37953 ft 407 kts 288°
2026-04-24 15:56 29.90587 -109.45478 37953 ft 405 kts 288°
2026-04-24 15:56 29.92929 -109.51318 37945 ft 402 kts 288°
2026-04-24 15:57 29.95305 -109.57263 37958 ft 409 kts 288°
2026-04-24 15:57 29.97678 -109.63222 37950 ft 414 kts 288°
2026-04-24 15:58 30.00083 -109.69269 37955 ft 415 kts 288°
2026-04-24 15:58 30.02508 -109.75373 37950 ft 416 kts 288°
2026-04-24 15:59 30.04893 -109.81385 37941 ft 414 kts 288°
2026-04-24 15:59 30.07282 -109.87418 37947 ft 412 kts 288°
2026-04-24 16:00 30.09654 -109.93415 37971 ft 410 kts 288°
2026-04-24 16:00 30.12019 -109.99414 37954 ft 410 kts 288°
2026-04-24 16:01 30.14379 -110.05412 37943 ft 410 kts 288°
2026-04-24 16:01 30.16740 -110.11418 37957 ft 412 kts 288°
2026-04-24 16:02 30.19121 -110.17490 37953 ft 415 kts 288°
2026-04-24 16:02 30.21501 -110.23555 37947 ft 414 kts 288°
2026-04-24 16:03 30.23865 -110.29598 37946 ft 411 kts 288°
2026-04-24 16:03 30.26223 -110.35633 37950 ft 412 kts 288°
2026-04-24 16:04 30.28582 -110.41684 37947 ft 413 kts 288°
2026-04-24 16:04 30.30945 -110.47753 37939 ft 414 kts 288°
2026-04-24 16:05 30.34104 -110.55883 37928 ft 414 kts 288°
2026-04-24 16:06 30.37621 -110.64954 37945 ft 414 kts 288°
2026-04-24 16:07 30.41152 -110.74087 37929 ft 414 kts 288°
2026-04-24 16:07 30.44671 -110.83210 37921 ft 413 kts 288°
2026-04-24 16:08 30.48184 -110.92343 37924 ft 414 kts 288°
2026-04-24 16:09 30.51693 -111.01484 37905 ft 414 kts 288°
2026-04-24 16:09 30.54031 -111.07575 37928 ft 414 kts 288°
2026-04-24 16:11 30.59865 -111.22823 37926 ft 413 kts 288°
2026-04-24 16:11 30.62192 -111.28925 37901 ft 413 kts 288°
2026-04-24 16:12 30.65670 -111.38065 37918 ft 413 kts 288°
2026-04-24 16:13 30.69143 -111.47214 37916 ft 412 kts 288°
2026-04-24 16:14 30.73756 -111.59404 37916 ft 412 kts 288°
2026-04-24 16:14 30.77213 -111.68567 37914 ft 413 kts 288°
2026-04-24 16:15 30.80664 -111.77736 37923 ft 413 kts 288°
2026-04-24 16:16 30.84114 -111.86925 37920 ft 413 kts 288°
2026-04-24 16:17 30.89840 -112.02234 37926 ft 412 kts 288°
2026-04-24 16:18 30.94406 -112.14488 37924 ft 412 kts 288°
2026-04-24 16:19 30.97827 -112.23700 37932 ft 414 kts 288°
2026-04-24 16:20 31.01250 -112.32938 37923 ft 413 kts 288°
2026-04-24 16:20 31.04640 -112.42110 37929 ft 411 kts 288°
2026-04-24 16:21 31.08039 -112.51331 37934 ft 410 kts 287°
2026-04-24 16:22 31.10272 -112.57405 37934 ft 410 kts 287°
2026-04-24 16:22 31.13650 -112.66610 37937 ft 409 kts 287°
2026-04-24 16:23 31.15870 -112.72675 37928 ft 409 kts 287°
2026-04-24 16:24 31.19213 -112.81826 37941 ft 408 kts 287°
2026-04-24 16:24 31.21436 -112.87925 37943 ft 408 kts 287°
2026-04-24 16:25 31.23657 -112.94028 37935 ft 408 kts 287°
2026-04-24 16:25 31.25877 -113.00141 37935 ft 408 kts 287°
2026-04-24 16:26 31.29201 -113.09312 37941 ft 408 kts 287°
2026-04-24 16:27 31.32516 -113.18486 37935 ft 409 kts 287°
2026-04-24 16:27 31.34730 -113.24625 37938 ft 409 kts 287°
2026-04-24 16:28 31.37126 -113.30674 37937 ft 413 kts 291°
2026-04-24 16:28 31.41808 -113.39232 37935 ft 417 kts 295°
2026-04-24 16:29 31.45016 -113.44901 37933 ft 417 kts 295°
2026-04-24 16:30 31.51388 -113.56248 37937 ft 417 kts 295°
2026-04-24 16:30 31.54566 -113.61929 37933 ft 417 kts 295°
2026-04-24 16:31 31.57742 -113.67617 37926 ft 417 kts 295°
2026-04-24 16:31 31.60914 -113.73307 37940 ft 417 kts 295°
2026-04-24 16:32 31.64083 -113.78997 37937 ft 417 kts 295°
2026-04-24 16:32 31.67249 -113.84691 37939 ft 417 kts 295°
2026-04-24 16:33 31.70417 -113.90397 37938 ft 417 kts 295°
2026-04-24 16:33 31.73576 -113.96095 37937 ft 416 kts 295°
2026-04-24 16:34 31.76735 -114.01802 37927 ft 416 kts 295°
2026-04-24 16:34 31.79891 -114.07513 37935 ft 416 kts 295°
2026-04-24 16:35 31.83019 -114.13181 37932 ft 416 kts 294°
2026-04-24 16:35 31.86166 -114.18890 37920 ft 416 kts 294°
2026-04-24 16:36 31.89309 -114.24604 37925 ft 416 kts 294°
2026-04-24 16:36 31.92447 -114.30315 37928 ft 415 kts 294°
2026-04-24 16:37 31.95581 -114.36027 37924 ft 416 kts 294°
2026-04-24 16:37 31.98717 -114.41752 37927 ft 415 kts 294°
2026-04-24 16:38 32.01844 -114.47469 37929 ft 415 kts 294°
2026-04-24 16:38 32.04968 -114.53189 37926 ft 415 kts 294°
2026-04-24 16:39 32.08093 -114.58919 37926 ft 415 kts 294°
2026-04-24 16:39 32.11214 -114.64651 37923 ft 415 kts 294°
2026-04-24 16:40 32.14327 -114.70378 37919 ft 415 kts 294°
2026-04-24 16:40 32.17438 -114.76109 37918 ft 414 kts 294°
2026-04-24 16:41 32.20545 -114.81841 37919 ft 414 kts 294°
2026-04-24 16:41 32.23647 -114.87574 37917 ft 414 kts 294°
2026-04-24 16:42 32.26749 -114.93315 37917 ft 415 kts 294°
2026-04-24 16:42 32.29848 -114.99060 37914 ft 415 kts 293°
2026-04-24 16:43 32.32949 -115.04815 37919 ft 415 kts 294°
2026-04-24 16:43 32.36043 -115.10561 37918 ft 414 kts 294°
2026-04-24 16:44 32.39140 -115.16315 37915 ft 414 kts 293°
2026-04-24 16:44 32.42230 -115.22066 37914 ft 414 kts 293°
2026-04-24 16:45 32.45316 -115.27820 37918 ft 414 kts 293°
2026-04-24 16:45 32.48403 -115.33584 37914 ft 414 kts 293°
2026-04-24 16:46 32.51488 -115.39354 37915 ft 414 kts 293°
2026-04-24 16:46 32.54568 -115.45124 37918 ft 415 kts 293°
2026-04-24 16:47 32.57649 -115.50905 37914 ft 415 kts 293°
2026-04-24 16:47 32.60707 -115.56651 37909 ft 415 kts 293°
2026-04-24 16:48 32.63782 -115.62436 37922 ft 415 kts 293°
2026-04-24 16:48 32.66850 -115.68229 37925 ft 414 kts 293°
2026-04-24 16:49 32.69898 -115.74034 37924 ft 414 kts 293°
2026-04-24 16:49 32.72945 -115.79848 37928 ft 415 kts 292°
2026-04-24 16:50 32.75992 -115.85666 37934 ft 415 kts 293°
2026-04-24 16:50 32.78547 -115.90550 37935 ft 415 kts 292°
2026-04-24 16:51 32.81560 -115.96345 37929 ft 409 kts 292°
2026-04-24 16:51 32.84454 -116.02110 37933 ft 404 kts 291°
2026-04-24 16:52 32.87293 -116.07805 37948 ft 402 kts 291°
2026-04-24 16:52 32.90146 -116.13519 37957 ft 402 kts 291°
2026-04-24 16:53 32.93005 -116.19242 37957 ft 403 kts 291°
2026-04-24 16:53 32.95870 -116.24982 37889 ft 402 kts 291°
2026-04-24 16:54 32.97295 -116.27839 37523 ft 402 kts 291°
2026-04-24 16:54 32.98721 -116.30702 37486 ft 402 kts 291°
2026-04-24 16:54 33.00144 -116.33557 37323 ft 395 kts 291°
2026-04-24 16:54 33.01567 -116.36424 36755 ft 407 kts 292°
2026-04-24 16:55 33.03014 -116.39343 36251 ft 411 kts 292°
2026-04-24 16:55 33.04477 -116.42294 35720 ft 415 kts 292°
2026-04-24 16:55 33.05825 -116.45322 35050 ft 416 kts 288°
2026-04-24 16:55 33.07010 -116.48493 34278 ft 422 kts 287°
2026-04-24 16:56 33.08156 -116.51735 33537 ft 427 kts 287°
2026-04-24 16:56 33.09320 -116.54998 32761 ft 430 kts 287°
2026-04-24 16:56 33.10524 -116.58287 31817 ft 434 kts 288°
2026-04-24 16:56 33.11765 -116.61619 30754 ft 445 kts 288°
2026-04-24 16:57 33.13015 -116.64989 30040 ft 442 kts 287°
2026-04-24 16:57 33.13918 -116.68435 29061 ft 430 kts 277°
2026-04-24 16:57 33.14425 -116.71916 28196 ft 422 kts 275°
2026-04-24 16:57 33.14870 -116.75351 27342 ft 416 kts 275°
2026-04-24 16:58 33.15308 -116.78742 26506 ft 412 kts 276°
2026-04-24 16:58 33.15757 -116.82105 25688 ft 409 kts 277°
2026-04-24 16:58 33.16221 -116.85441 24886 ft 406 kts 277°
2026-04-24 16:58 33.16687 -116.88707 24084 ft 404 kts 278°
2026-04-24 16:59 33.17163 -116.92004 23230 ft 402 kts 278°
2026-04-24 16:59 33.17639 -116.95282 22351 ft 400 kts 278°
2026-04-24 16:59 33.18580 -117.01754 20791 ft 392 kts 279°
2026-04-24 17:00 33.19043 -117.04949 20045 ft 388 kts 279°
2026-04-24 17:00 33.19949 -117.11234 18634 ft 382 kts 279°
2026-04-24 17:00 33.20398 -117.14355 17868 ft 379 kts 279°
2026-04-24 17:01 33.21280 -117.20500 16471 ft 372 kts 279°
2026-04-24 17:01 33.21713 -117.23533 15791 ft 369 kts 279°
2026-04-24 17:02 33.22566 -117.29515 14522 ft 363 kts 279°
2026-04-24 17:02 33.22989 -117.32474 14013 ft 358 kts 279°
2026-04-24 17:02 33.23428 -117.35340 13861 ft 346 kts 280°
2026-04-24 17:02 33.23871 -117.38151 13705 ft 347 kts 280°
2026-04-24 17:03 33.24777 -117.43903 13426 ft 354 kts 280°
2026-04-24 17:03 33.25226 -117.46788 13293 ft 352 kts 280°
2026-04-24 17:03 33.25672 -117.49660 13152 ft 351 kts 280°
2026-04-24 17:04 33.26149 -117.52504 13013 ft 347 kts 285°
2026-04-24 17:04 33.28457 -117.57582 12595 ft 354 kts 302°
2026-04-24 17:04 33.29820 -117.60039 12371 ft 354 kts 302°
2026-04-24 17:05 33.31166 -117.62485 12150 ft 352 kts 301°
2026-04-24 17:05 33.32496 -117.64923 11933 ft 350 kts 301°
2026-04-24 17:05 33.35131 -117.69794 11500 ft 348 kts 301°
2026-04-24 17:06 33.36443 -117.72232 11282 ft 348 kts 301°
2026-04-24 17:06 33.38979 -117.76953 10851 ft 326 kts 301°
2026-04-24 17:06 33.40165 -117.79166 10646 ft 315 kts 301°
2026-04-24 17:07 33.40957 -117.80643 10516 ft 308 kts 301°
2026-04-24 17:07 33.42450 -117.83433 10261 ft 294 kts 301°
2026-04-24 17:07 33.44592 -117.87436 9925 ft 276 kts 301°
2026-04-24 17:08 33.46607 -117.91206 9534 ft 262 kts 301°
2026-04-24 17:08 33.47707 -117.92907 9372 ft 258 kts 317°
2026-04-24 17:08 33.49262 -117.94000 9233 ft 265 kts 336°
2026-04-24 17:09 33.52771 -117.95504 8906 ft 271 kts 338°
2026-04-24 17:09 33.56328 -117.97021 8561 ft 270 kts 338°
2026-04-24 17:10 33.58088 -117.97781 8380 ft 266 kts 338°
2026-04-24 17:10 33.63259 -117.99999 7863 ft 264 kts 341°
2026-04-24 17:11 33.68602 -118.01926 7178 ft 268 kts 342°
2026-04-24 17:12 33.77212 -118.05065 6955 ft 247 kts 342°
2026-04-24 18:54 33.94043 -118.40263 130 ft 0 kts 82°